Main page
METAR-TAF:

METAR-TAF

Airports :

Araraquara Airport

Araraquara, São Paulo, Brazil

latitude: 21-48-16S, longitude: 048-08-25W, elevation: 711 m

Current weather observation

The report was made 29 minutes ago, at 00:00 UTC
Wind 2 kt from the East/Southeast
Temperature 24°C
Humidity 94%
Pressure 1015 hPa
Visibility 10 km or more
Scattered clouds at a height of 4000 ft
Broken clouds at a height of 8000 ft

METAR: SBAQ 190000Z 12002KT 9999 SCT040 BKN080 24/23 Q1015

Time: 21:29 (00:29 UTC)


TAF: missing

Weather observations and forecasts of more than 4000 airports (METAR and TAF reports).

The available stations are represented by yellow and red dots on the map.

Hover mouse over dot to see the name of the station.

Then click to see weather observations and forecasts.

To change the map : click on the green buttons with a black cross to zoom in, on the green button with a dash to zoom out, or on the green arrows for adjacent maps.


METAR-TAF: